www.pogodaiklimat.ru

Погода и климат >> Архив погоды >> Индия >> Cannanore


ПОГОДА в Cannanore

  • Прогноз погоды в Cannanore
  • Монитор погоды в Cannanore
  • Климат города

АРХИВ ПОГОДЫ в Cannanore

Время (UTC), дата Ветер
(напр.,м/с)
 
Видим.   Явления Облачность Т
(С)
Тd
(С)
f
(%)
Тe
(С)
Тes
(С)
Комфортность P
(гПа)
Po
(гПа)
Тmin
(С)
Tmax
(С)
R
(мм)
R24
(мм)
S
(см)
00 15.02 С 1 2000 м дымка 3/0
[Ci fib]
+24.8 +23.0 90 +33 +33 очень
душно
1013.8 1014.0
03 15.02 С 1 4000 м мгла 3/0
[Ci fib]
+26.4 +19.6 66 +32 +37 очень
душно
1015.7 1016.0 +24.0 +34.2
06 15.02 Ю 3 10 км 4/1 600 м
[Cu Sc Ci sp]
+33.2 +21.1 49 +41 +54 опасность
перегрева
1015.2 1015.0
09 15.02 ЮЗ 4 10 км 3/0
[Ci fib]
+33.8 +24.4 58 +46 +55 опасность
перегрева
1012.2 1012.0
12 15.02 З 4 10 км 3/0
[Ci fib]
+30.8 +23.9 67 +42 +43 опасность
перегрева
1012.5 1013.0 +34.1
00 16.02 В 2 2000 м дымка 3/0
[Ci fib]
+25.0 +22.9 88 +33 +33 очень
душно
1014.1 1014.0
06 16.02 ЮВ 1 10 км 4/0
[Ci fib]
+32.8 +19.8 46 +39 +57 опасность
солнечного
удара
1015.3 1015.0
09 16.02 ЮЗ 4 10 км 5/1 600 м
[Cu hum Ci sp]
+33.4 +23.3 56 +44 +52 опасность
перегрева
1011.5 1012.0
12 16.02 З 3 10 км 3/0
[Ci fib]
+30.6 +24.3 69 +43 +43 опасность
перегрева
1011.4 1011.0 +35.8
00 17.02 СВ 1 2000 м дымка 1/0
[Ci fib]
+25.0 +23.5 91 +34 +34 очень
душно
1011.4 1011.0
03 17.02 СВ 1 4000 м мгла 1/0
[Ci fib]
+26.0 +20.8 73 +33 +38 очень
душно
1013.2 1013.0 +24.1 +35.8
06 17.02 ЮВ 2 10 км 3/0 2000 м
[Ac trans Ci fib]
+33.2 +22.1 52 +42 +58 опасность
перегрева
1012.6 1013.0
09 17.02 ЮЗ 4 10 км 3/1 600 м
[Cu Sc Ci fib]
+34.0 +20.3 45 +41 +48 опасность
перегрева
1009.4 1009.0
12 17.02 ЮЗ 3 4000 м мгла 3/1 600 м
[Cu Sc Ci fib]
+31.4 +24.3 66 +44 +44 опасность
перегрева
1008.2 1008.0 +34.6
00 18.02 С 1 2000 м дымка 1/0
[Ci fib]
+24.6 +22.5 88 +32 +32 очень
душно
1009.2 1009.0
03 18.02 В 1 2000 м дымка 6/3 600 м
[Sc Cs]
+25.4 +23.0 87 +34 +37 очень
душно
1011.6 1012.0 +24.0 +34.6
06 18.02 Ю 3 10 км 4/3 600 м
[Cu Sc Ci fib]
+32.4 +22.8 57 +42 +52 опасность
перегрева
1011.6 1012.0
09 18.02 ЮЗ 3 10 км 1/0
[Ci fib]
+34.0 +22.4 51 +43 +56 опасность
перегрева
1008.3 1008.0
12 18.02 З 2 10 км 1/0
[Ci fib]
+31.2 +22.1 58 +40 +41 очень
душно
1008.1 1008.0 +34.2
00 19.02 В 3 2000 м дымка 1/0
[Ci fib]
+25.0 +21.1 79 +32 +32 очень
душно
1010.2 1010.0
03 19.02 В 2 4000 м мгла 1/0
[Ci fib]
+25.4 +20.5 74 +31 +36 очень
душно
1012.2 1012.0 +24.0 +34.2
06 19.02 СВ 2 10 км 1/0
[Ci fib]
+33.2 +19.2 44 +39 +56 опасность
солнечного
удара
1011.5 1012.0
09 19.02 З 3 10 км 1/0
[Ci fib]
+33.6 +21.2 48 +41 +52 опасность
перегрева
1007.8 1008.0
12 19.02 З 3 10 км 1/0
[Ci fib]
+31.0 +23.5 64 +42 +43 опасность
перегрева
1008.0 1008.0 +34.0
00 20.02 СВ 2 2000 м дымка 1/0
[Ci fib]
+25.0 +22.9 88 +33 +33 очень
душно
1010.1 1010.0
03 20.02 СВ 2 4000 м мгла 1/0
[Ci fib]
+26.4 +19.6 66 +32 +37 очень
душно
1011.7 1012.0 +24.5 +34.0
06 20.02 ЮЗ 3 10 км 1/0
[Ci fib]
+33.4 +20.9 48 +41 +56 опасность
перегрева
1011.2 1011.0
12 20.02 З 5 10 км 3/1 600 м
[Sc Ci fib]
+31.0 +24.4 68 +43 +44 опасность
перегрева
1007.7 1008.0 +34.2
00 21.02 СВ 1 2000 м дымка 3/0
[Ci fib]
+25.0 +23.2 90 +33 +33 очень
душно
1008.9 1009.0
03 21.02 СВ 1 4000 м мгла 1/0
[Ci fib]
+26.0 +19.9 69 +32 +37 очень
душно
1010.7 1011.0 +24.6 +34.2
06 21.02 Ю 2 10 км ясно +33.4 +15.9 35 +36 +55 опасность
солнечного
удара
1009.8 1010.0
09 21.02 ЮЗ 4 10 км ясно +33.8 +24.1 57 +46 +55 опасность
перегрева
1006.2 1006.0
12 21.02 ЮЗ 3 4000 м мгла 3/1 600 м
[Cu Sc Ci fib]
+31.2 +25.3 71 +45 +46 опасность
перегрева
1006.4 1006.0 +35.2

 

Местоположение метеостанции Cannanore (Kerala, Индия): широта 11.83 долгота 75.33 высота над уровнем моря 18 м.

В архиве по умолчанию представлена погода в Cannanore за последнюю неделю. Архивные данные за месяц целиком и за предыдущие месяцы, начиная с января 2011 года, Вы можете получить, выбрав интересующий диапазон дат из раскрывающегося списка и нажав кнопку "Ввод!".

Внимание! Время в таблицах - всемирное. Для получения местного времени необходимо прибавить поправку, которая в Cannanore равна 5.5 ч.

Смотрите также архив погоды в соседних городах и на ближайших метеорологических станциях:

Погода в Madikeri (Karnataka, Индия) (79 км)
Погода в Kozhikode (Kerala, Индия) (81 км)
Погода в Karipur (Kerala, Индия) (103 км)
Погода в Mangalore Airport (Karnataka, Индия) (131 км)
Погода в Mangalore (Karnataka, Индия) (136 км)
Погода в Mysore (Karnataka, Индия) (158 км)
Погода в Udhagamandalam (Tamil Nadu, Индия) (160 км)
Погода в Chickmagalur (Karnataka, Индия) (164 км)
Погода в Hassan (Karnataka, Индия) (167 км)
Погода в Coonoor (Tamil Nadu, Индия) (169 км)

Пояснения к столбцам:

Ветер - указаны скорость ветра в м/с - средняя за 10 мин, порывы в срок и между сроками (в фигурных скобках) и направление, откуда дует ветер: С - северный, СВ - северо-восточный, В - восточный, ЮВ - юго-восточный, Ю - южный, ЮЗ - юго-западный, З - западный, СЗ - северо-западный.
Видимость - горизонтальная дальность видимости в метрах или километрах. При видимости от 1 до 10 км при отсутствии осадков обычно наблюдается дымка, при ухудшении видимости до 1 км и менее - туман. В сухую погоду видимость может ухудшаться дымом, пылью или мглою.
Явления - указаны атмосферные явления, наблюдавшиеся в срок или в последний час перед сроком; фигурными скобками обозначены явления, наблюдавшиеся между сроками (за 1-3 часа до срока); квадратными скобками обозначены град или гололедные отложения с указанием их диаметра в мм.
Облачность - указаны через наклонную черту общая и нижняя облачность в баллах и высота нижней границы облаков в метрах; квадратными скобками обозначены формы облаков: Ci - перистые, Cs - перисто-слоистые, Cc - перисто-кучевые, Ac - высококучевые, As - высокослоистые, Sc - слоисто-кучевые, Ns - слоисто-дождевые, Cu - кучевые, Cb - кучево-дождевые. Подробнее классификацию облаков см. в Атласе облаков (PDF).
T - Температура воздуха - температура, измеренная на высоте 2 м над землей.
Td - Температура точки росы - температура, при понижении до которой содержащийся в воздухе водяной пар достигнет насыщения.
f - Относительная влажность воздуха - влажноcть воздуха, измеренная на высоте 2 м над землей.
Te - Эффективная температура - температура, которую ощущает одетый по сезону человек в тени. Характеристика душности погоды. При расчете учитывается влияние влажности воздуха и скорости ветра на теплоощущения человека.
Tes - Эффективная температура на солнце - температура, которую ощущает человек, с поправкой на солнечный нагрев. Характеристика знойности погоды. Зависит от высоты солнца над горизонтом, облачности и скорости ветра. Ночью, в пасмурную погоду, а также при ветре 12 м/с и более поправка равна нулю.
P - Атмосферное давление - приведенное к уровню моря атмосферное давление.
Po - Атмосферное давление - измеренное на уровне метеостанции атмосферное давление.
Tmin - Минимальная температура - минимум температуры воздуха на высоте 2 м над землей.
Tmax - Максимальная температура - максимум температуры воздуха на высоте 2 м над землей.
R - Количество осадков - Количество выпавших осадков за период времени, мм. При наведении курсора мыши на число - период времени, за который выпало указанное количество осадков.
R24 - Количество осадков - Количество выпавших осадков за 24 часа, мм.
S - Снежный покров - Высота снежного покрова, см. При наведении курсора мыши на число - состояние снежного покрова и степень покрытия местности в баллах.